Location: Unspecified
(0.0000°N, 0.0000°E)
Time: 12:56:51
(UTC+00:00)

ISS - Pass Details

Date: 29 May 2017
Orbit: 402 x 408 km, 51.6° (Epoch: 26 May)

Event Time Altitude Azimuth Distance (km) Brightness Sun altitude
Exits shadow 03:53:54 10° 111° (ESE) 1,431 -0.6 -28.5°
Drops below altitude 10° 03:53:56 10° 112° (ESE) 1,446 -0.5 -28.5°
Sets 03:56:15 0° 126° (SE) 2,306 0.4 -28.0°
